Weather Service Report


643 
ASUS42 KFFC 260803
RWRGA 
WEATHER ROUNDUP FOR GEORGIA
NATIONAL WEATHER SERVICE PEACHTREE CITY GA
400 AM EDT MON SEP 26 2016

NOTE: "FAIR" INDICATES FEW OR NO CLOUDS BELOW 12,000 FEET WITH NO
SIGNIFICANT WEATHER AND/OR OBSTRUCTIONS TO VISIBILITY. 

* = USE WITH CAUTION. THE STATIONS MARKED WITH AN ASTERISK MAY NOT
REPORT WEATHER SUCH AS PRECIPITATION, FOG, OR THUNDER AND ARE NOT 
QUALITY CONTROLLED BY NWS.

THE REMARK "TC" DENOTES TEMPERATURE READING IN DEGREES CELSIUS.

GAZ001>058-260900-
NORTH GEORGIA
  
CITY           SKY/WX    TMP DP  RH WIND       PRES   REMARKS
ATLANTA        CLEAR     73  66  78 SE5       30.07F                  
ATHENS         CLEAR     68  66  93 CALM      30.08F                  
CHAMBLEE       PTCLDY    71  64  78 CALM      30.07F                  
PEACHTREE CITY PTCLDY    68  67  96 CALM      30.07F                  
ROME           CLEAR     69  61  75 CALM      30.04F                  
WEST ATLANTA   PTCLDY    70  65  84 CALM      30.06F                  
GAINESVILLE    CLEAR     71  65  81 CALM      30.12F                  
CARTERSVILLE   PTCLDY    71  65  81 CALM      30.06F                  

  
CITY           SKY/WX    TMP DP  RH WIND       PRES   REMARKS
DALTON*        CLEAR     72  64  78 S3        30.06F                  
MARIETTA       CLEAR     73  64  73 S3        30.07F                  
CANTON*        PTCLDY    72  59  64 CALM      30.10F                  
BLAIRSVILLE*     N/A    N/A N/A N/A MISG      30.13F                  
$$

GAZ059>098-102>109-260900-
CENTRAL GEORGIA
  
CITY           SKY/WX    TMP DP  RH WIND       PRES   REMARKS
AUGUSTA-BUSH   MOCLDY    68  67  96 CALM      30.06F FOG              
AUGUSTA-DANIEL MOCLDY    74  68  81 E5        30.07F                  
COLUMBUS       CLOUDY    72  68  87 CALM      30.04F                  
MACON          PTCLDY    68  65  90 CALM      30.06S                  
ROBINS AFB     PTCLDY    69  67  93 CALM      30.05F                  

  
CITY           SKY/WX    TMP DP  RH WIND       PRES   REMARKS
LAGRANGE*      CLOUDY    70  70 100 CALM      30.05F                  
MILLEDGEVILLE* PTCLDY    70  68  94 CALM      30.06F                  
$$

GAZ099>101-110>166-260900-
SOUTH GEORGIA
  
CITY           SKY/WX    TMP DP  RH WIND       PRES   REMARKS
SAVANNAH       CLOUDY    74  72  93 N5        30.02F FOG              
VALDOSTA       CLEAR     70  70 100 CALM      30.00F                  
ALMA           PTCLDY    72  71  97 CALM      30.01F FOG              
ST SIMONS      MOCLDY    80  71  74 E10       29.98S                  
FT STEWART     CLOUDY    73  71  94 N3        29.98F                  
ALBANY         PTCLDY    72  70  93 CALM      30.04F                  
HUNTER AFB     CLOUDY    76  76 100 VRB2      29.99F                  
MOODY AFB      CLEAR     70  69  95 N3        29.99F                  
BRUNSWICK      MOCLDY    77  75  94 N3        29.99F                  

  
CITY           SKY/WX    TMP DP  RH WIND       PRES   REMARKS
BAINBRIDGE*    CLEAR     72  70  94 CALM      30.00F                  
MOULTRIE*      PTCLDY    72  70  94 N3        30.03S                  
VIDALIA*       PTCLDY    72  72 100 NE3       30.04F                  
WAYCROSS*      PTCLDY    74  74 100 NE6       30.01F                  
DOUGLAS*       CLEAR     72  70  94 NW3       30.04S                  
$$
  

Return to Home page


Western Regional Climate Center, wrcc@dri.edu